| time (UTC) | temp F | wind direction | speed knots | gust knots | rain 1hr in | rain 24hr in | rain mn in | humidity % | barometer mb |
| 20260508033058 | 49 | 211 | 0.9 | 2.6 | 0.00 | 1.23 | 0.00 | 99 | 1001.9 |
| 20260508031558 | 49 | 0 | 0.0 | 7.0 | 0.00 | 1.23 | 0.00 | 99 | 1001.9 |
| 20260508030057 | 49 | 174 | 0.0 | 5.2 | 0.00 | 1.23 | 0.00 | 99 | 1002.1 |
| 20260508024559 | 49 | 0 | 0.9 | 3.5 | 0.00 | 1.23 | 1.23 | 99 | 1002.1 |
| 20260508023059 | 49 | 60 | 0.0 | 4.3 | 0.00 | 1.23 | 1.23 | 99 | 1002.1 |
| 20260508021556 | 49 | 253 | 0.9 | 3.5 | 0.00 | 1.23 | 1.23 | 99 | 1002.1 |
| 20260508020057 | 49 | 112 | 1.7 | 5.2 | 0.00 | 1.23 | 1.23 | 99 | 1002.2 |
| 20260508014557 | 49 | 125 | 0.0 | 2.6 | 0.00 | 1.23 | 1.23 | 99 | 1001.9 |
| 20260508013059 | 50 | 138 | 0.9 | 2.6 | 0.00 | 1.23 | 1.23 | 99 | 1001.7 |
| 20260508011556 | 49 | 126 | 0.9 | 3.5 | 0.00 | 1.23 | 1.23 | 99 | 1001.6 |
| 20260508010057 | 50 | 294 | 0.0 | 1.7 | 0.00 | 1.23 | 1.23 | 99 | 1001.6 |
| 20260508004610 | 50 | 0 | 0.9 | 2.6 | 0.00 | 1.23 | 1.23 | 99 | 1001.8 |
| 20260508003056 | 50 | 276 | 0.9 | 3.5 | 0.00 | 1.23 | 1.23 | 99 | 1002.1 |
| 20260508001557 | 50 | 145 | 1.7 | 7.0 | 0.00 | 1.23 | 1.23 | 99 | 1002.2 |
| 20260508000057 | 50 | 137 | 2.6 | 6.1 | 0.00 | 1.23 | 1.23 | 99 | 1002.2 |
| 20260507234600 | 50 | 147 | 1.7 | 3.5 | 0.00 | 1.23 | 1.23 | 99 | 1002.3 |
| 20260507233055 | 51 | 173 | 0.9 | 3.5 | 0.00 | 1.23 | 1.23 | 99 | 1002.3 |
| 20260507231650 | 51 | 173 | 0.9 | 7.0 | 0.00 | 1.23 | 1.23 | 99 | 1002.2 |
| 20260507230105 | 51 | 162 | 4.3 | 13.0 | 0.00 | 1.23 | 1.23 | 99 | 1002.3 |
| 20260507224556 | 51 | 147 | 4.3 | 10.4 | 0.00 | 1.23 | 1.23 | 99 | 1002.3 |
| 20260507223100 | 51 | 151 | 6.1 | 10.4 | 0.00 | 1.23 | 1.23 | 98 | 1002.3 |
| 20260507221557 | 51 | 146 | 2.6 | 8.7 | 0.00 | 1.23 | 1.23 | 98 | 1002.4 |
| 20260507220057 | 51 | 124 | 4.3 | 9.6 | 0.01 | 1.23 | 1.23 | 99 | 1002.7 |
| 20260507214618 | 51 | 101 | 4.3 | 10.4 | 0.01 | 1.23 | 1.23 | 98 | 1002.8 |
| 20260507213108 | 51 | 149 | 6.1 | 10.4 | 0.02 | 1.23 | 1.23 | 99 | 1003.0 |
| 20260507211620 | 51 | 159 | 4.3 | 10.4 | 0.05 | 1.23 | 1.23 | 99 | 1002.7 |
| 20260507210057 | 51 | 177 | 3.5 | 7.8 | 0.09 | 1.22 | 1.22 | 98 | 1002.4 |
| 20260507204607 | 51 | 128 | 5.2 | 10.4 | 0.17 | 1.22 | 1.22 | 98 | 1002.2 |
| 20260507203101 | 51 | 136 | 4.3 | 10.4 | 0.25 | 1.21 | 1.21 | 98 | 1002.8 |
| 20260507201608 | 51 | 82 | 5.2 | 13.0 | 0.35 | 1.17 | 1.17 | 98 | 1003.1 |
| 20260507200059 | 51 | 164 | 2.6 | 6.1 | 0.41 | 1.13 | 1.13 | 98 | 1003.4 |
| 20260507194633 | 51 | 117 | 3.5 | 9.6 | 0.45 | 1.04 | 1.04 | 98 | 1004.1 |
| 20260507193056 | 52 | 148 | 6.1 | 13.0 | 0.49 | 0.96 | 0.96 | 97 | 1004.6 |
| 20260507191601 | 52 | 145 | 5.2 | 9.6 | 0.51 | 0.83 | 0.83 | 97 | 1004.9 |
| 20260507190057 | 52 | 149 | 8.7 | 19.1 | 0.52 | 0.72 | 0.72 | 96 | 1004.8 |
| 20260507184607 | 53 | 187 | 10.4 | 21.7 | 0.46 | 0.60 | 0.60 | 96 | 1004.9 |
| 20260507183101 | 53 | 209 | 9.6 | 17.4 | 0.33 | 0.47 | 0.47 | 96 | 1005.3 |
| 20260507181556 | 54 | 180 | 9.6 | 17.4 | 0.20 | 0.32 | 0.32 | 96 | 1005.5 |
| 20260507180106 | 55 | 195 | 7.0 | 16.5 | 0.07 | 0.18 | 0.18 | 96 | 1005.0 |
| 20260507174557 | 54 | 183 | 4.3 | 13.9 | 0.03 | 0.14 | 0.14 | 96 | 1004.8 |
| 20260507173057 | 54 | 191 | 6.1 | 13.9 | 0.03 | 0.14 | 0.14 | 96 | 1004.9 |
| 20260507171600 | 55 | 184 | 3.5 | 8.7 | 0.01 | 0.12 | 0.12 | 95 | 1005.2 |
| 20260507170057 | 54 | 145 | 4.3 | 15.6 | 0.00 | 0.11 | 0.11 | 94 | 1005.8 |
| 20260507164607 | 55 | 168 | 8.7 | 21.7 | 0.00 | 0.11 | 0.11 | 92 | 1006.0 |
| 20260507163103 | 55 | 162 | 9.6 | 17.4 | 0.00 | 0.11 | 0.11 | 92 | 1006.5 |
| 20260507161559 | 55 | 195 | 8.7 | 24.3 | 0.00 | 0.11 | 0.11 | 91 | 1007.1 |
| 20260507160058 | 57 | 176 | 12.2 | 20.9 | 0.00 | 0.11 | 0.11 | 90 | 1007.1 |
| 20260507154605 | 57 | 171 | 7.8 | 26.1 | 0.00 | 0.11 | 0.11 | 90 | 1007.6 |
| 20260507153058 | 57 | 151 | 11.3 | 20.9 | 0.00 | 0.11 | 0.11 | 91 | 1007.6 |
| 20260507151557 | 57 | 150 | 7.0 | 14.8 | 0.00 | 0.11 | 0.11 | 92 | 1007.9 |
| 20260507150059 | 56 | 139 | 7.0 | 18.2 | 0.00 | 0.11 | 0.11 | 92 | 1008.2 |
| 20260507144559 | 56 | 165 | 9.6 | 20.9 | 0.00 | 0.11 | 0.11 | 92 | 1008.4 |
| 20260507143110 | 56 | 191 | 13.0 | 24.3 | 0.00 | 0.11 | 0.11 | 93 | 1008.6 |
| 20260507141558 | 57 | 157 | 7.8 | 26.1 | 0.00 | 0.11 | 0.11 | 93 | 1009.0 |
| 20260507140100 | 56 | 184 | 8.7 | 23.5 | 0.00 | 0.11 | 0.11 | 94 | 1009.5 |
| 20260507134559 | 56 | 145 | 14.8 | 28.7 | 0.00 | 0.11 | 0.11 | 94 | 1009.3 |
| 20260507133057 | 56 | 179 | 13.0 | 23.5 | 0.00 | 0.11 | 0.11 | 94 | 1009.6 |
| 20260507131612 | 56 | 135 | 9.6 | 20.9 | 0.00 | 0.11 | 0.11 | 94 | 1009.7 |
| 20260507130100 | 56 | 197 | 13.9 | 23.5 | 0.00 | 0.11 | 0.11 | 96 | 1010.2 |
| 20260507124558 | 55 | 173 | 10.4 | 17.4 | 0.00 | 0.11 | 0.11 | 97 | 1009.6 |
| 20260507123056 | 55 | 180 | 12.2 | 25.2 | 0.02 | 0.11 | 0.11 | 98 | 1010.1 |
| 20260507121557 | 54 | 170 | 7.8 | 13.0 | 0.05 | 0.11 | 0.11 | 98 | 1010.4 |
| 20260507120056 | 53 | 147 | 6.1 | 13.9 | 0.05 | 0.11 | 0.11 | 98 | 1010.5 |
| 20260507114558 | 53 | 106 | 5.2 | 13.0 | 0.05 | 0.11 | 0.11 | 98 | 1011.2 |
| 20260507113100 | 53 | 160 | 7.0 | 14.8 | 0.04 | 0.09 | 0.09 | 98 | 1011.6 |
| 20260507111556 | 53 | 118 | 4.3 | 10.4 | 0.03 | 0.06 | 0.06 | 98 | 1011.7 |
| 20260507110057 | 53 | 147 | 6.1 | 12.2 | 0.03 | 0.06 | 0.06 | 98 | 1011.7 |
| 20260507104556 | 53 | 105 | 4.3 | 8.7 | 0.03 | 0.06 | 0.06 | 98 | 1011.5 |
| 20260507103058 | 53 | 191 | 4.3 | 9.6 | 0.02 | 0.05 | 0.05 | 99 | 1012.2 |
| 20260507101558 | 52 | 189 | 4.3 | 10.4 | 0.01 | 0.03 | 0.03 | 99 | 1012.5 |
| 20260507100056 | 52 | 159 | 0.9 | 3.5 | 0.01 | 0.03 | 0.03 | 99 | 1012.4 |
| 20260507094558 | 52 | 139 | 5.2 | 9.6 | 0.01 | 0.03 | 0.03 | 99 | 1012.3 |
| 20260507093101 | 52 | 170 | 4.3 | 13.9 | 0.01 | 0.03 | 0.03 | 99 | 1012.6 |
| 20260507091558 | 51 | 164 | 6.1 | 13.9 | 0.00 | 0.02 | 0.02 | 99 | 1013.1 |
| 20260507090057 | 51 | 0 | 0.0 | 1.7 | 0.00 | 0.02 | 0.02 | 98 | 1013.0 |
| 20260507084556 | 51 | 139 | 1.7 | 7.0 | 0.00 | 0.02 | 0.02 | 98 | 1012.8 |
| 20260507083101 | 51 | 188 | 1.7 | 8.7 | 0.00 | 0.02 | 0.02 | 99 | 1012.7 |
| 20260507081556 | 51 | 162 | 2.6 | 7.0 | 0.00 | 0.02 | 0.02 | 98 | 1012.7 |
| 20260507080113 | 51 | 198 | 1.7 | 4.3 | 0.00 | 0.02 | 0.02 | 98 | 1013.1 |
| 20260507074555 | 51 | 173 | 0.9 | 8.7 | 0.00 | 0.02 | 0.02 | 98 | 1013.3 |
| 20260507073057 | 51 | 172 | 3.5 | 7.8 | 0.00 | 0.02 | 0.02 | 98 | 1013.6 |
| 20260507071610 | 51 | 130 | 3.5 | 6.1 | 0.00 | 0.02 | 0.02 | 98 | 1013.8 |
| 20260507070057 | 51 | 156 | 5.2 | 9.6 | 0.01 | 0.02 | 0.02 | 98 | 1013.8 |
| 20260507064557 | 51 | 142 | 6.1 | 12.2 | 0.02 | 0.02 | 0.02 | 97 | 1013.9 |
| 20260507063058 | 51 | 124 | 4.3 | 10.4 | 0.02 | 0.02 | 0.02 | 97 | 1014.1 |
| 20260507061600 | 51 | 171 | 4.3 | 11.3 | 0.02 | 0.02 | 0.02 | 97 | 1014.4 |
| 20260507060058 | 51 | 168 | 4.3 | 9.6 | 0.01 | 0.01 | 0.01 | 96 | 1014.4 |
| 20260507054556 | 51 | 130 | 3.5 | 7.8 | 0.00 | 0.00 | 0.00 | 96 | 1014.8 |
| 20260507053127 | 51 | 97 | 4.3 | 7.0 | 0.00 | 0.00 | 0.00 | 96 | 1015.0 |
| 20260507051605 | 52 | 130 | 2.6 | 7.8 | 0.00 | 0.00 | 0.00 | 95 | 1015.2 |
| 20260507050108 | 52 | 111 | 2.6 | 7.0 | 0.00 | 0.00 | 0.00 | 95 | 1015.5 |
| 20260507044559 | 51 | 142 | 3.5 | 7.8 | 0.00 | 0.00 | 0.00 | 96 | 1015.9 |
| 20260507043057 | 51 | 149 | 3.5 | 7.8 | 0.00 | 0.00 | 0.00 | 96 | 1016.1 |
| 20260507041558 | 51 | 108 | 3.5 | 7.8 | 0.00 | 0.00 | 0.00 | 95 | 1016.6 |
| 20260507034556 | 51 | 121 | 5.2 | 9.6 | 0.00 | 0.00 | 0.00 | 95 | 1017.0 |